Time,TemperatureF,DewpointF,PressureIn,WindDirection,WindDirectionDegrees,WindSpeedMPH,WindSpeedGustMPH,Humidity,HourlyPrecipIn,Conditions,Clouds,dailyrainin,SoftwareType,DateUTC
2013-01-22 00:01:00,34.9,15.2,30.15,NW,315,1.8,1.8,44,0.00,,---,0.00,VWS V14.01,2013-01-22 07:01:00,
2013-01-22 00:06:00,34.7,15.0,30.15,NNW,338,0.9,0.9,44,0.00,,---,0.00,VWS V14.01,2013-01-22 07:06:00,
2013-01-22 00:11:00,34.2,14.6,30.15,NNW,338,0.4,0.4,44,0.00,,---,0.00,VWS V14.01,2013-01-22 07:11:00,
2013-01-22 00:16:00,34.2,15.1,30.15,NE,45,1.8,1.8,45,0.00,,---,0.00,VWS V14.01,2013-01-22 07:16:00,
2013-01-22 00:21:00,34.2,15.1,30.15,NE,45,1.1,1.1,45,0.00,,---,0.00,VWS V14.01,2013-01-22 07:21:00,
2013-01-22 00:26:00,34.2,15.1,30.15,NE,45,0.7,0.7,45,0.00,,---,0.00,VWS V14.01,2013-01-22 07:26:00,
2013-01-22 00:31:00,34.2,15.1,30.15,ENE,68,1.6,1.6,45,0.00,,---,0.00,VWS V14.01,2013-01-22 07:31:00,
2013-01-22 00:36:00,33.8,14.2,30.15,NE,45,0.7,0.7,44,0.00,,---,0.00,VWS V14.01,2013-01-22 07:36:00,
2013-01-22 00:41:00,33.5,13.9,30.15,NNE,22,1.6,1.6,44,0.00,,---,0.00,VWS V14.01,2013-01-22 07:41:00,
2013-01-22 00:46:00,33.5,14.4,30.15,NNE,22,2.7,2.7,45,0.00,,---,0.00,VWS V14.01,2013-01-22 07:46:00,
2013-01-22 00:51:00,33.3,14.3,30.15,North,0,3.6,3.6,45,0.00,,---,0.00,VWS V14.01,2013-01-22 07:51:00,
2013-01-22 00:56:00,33.1,14.6,30.15,North,0,2.9,2.9,46,0.00,,---,0.00,VWS V14.01,2013-01-22 07:56:00,
2013-01-22 01:01:00,33.1,14.6,30.15,NNE,22,1.3,1.3,46,0.00,,---,0.00,VWS V14.01,2013-01-22 08:01:00,
2013-01-22 01:06:00,33.1,14.6,30.15,NNW,338,1.1,1.1,46,0.00,,---,0.00,VWS V14.01,2013-01-22 08:06:00,
2013-01-22 01:11:00,33.1,14.6,30.15,NNW,338,1.1,1.1,46,0.00,,---,0.00,VWS V14.01,2013-01-22 08:11:00,
2013-01-22 01:16:00,33.1,14.6,30.15,WNW,292,1.8,1.8,46,0.00,,---,0.00,VWS V14.01,2013-01-22 08:16:00,
2013-01-22 01:21:00,33.1,14.6,30.15,West,270,1.1,1.1,46,0.00,,---,0.00,VWS V14.01,2013-01-22 08:21:00,
2013-01-22 01:26:00,33.1,14.6,30.15,NNW,338,1.8,1.8,46,0.00,,---,0.00,VWS V14.01,2013-01-22 08:26:00,
2013-01-22 01:31:00,33.3,14.8,30.15,NNW,338,1.8,1.8,46,0.00,,---,0.00,VWS V14.01,2013-01-22 08:31:00,
2013-01-22 01:36:00,33.5,14.9,30.16,NNW,338,2.7,2.7,46,0.00,,---,0.00,VWS V14.01,2013-01-22 08:36:00,
2013-01-22 01:41:00,33.8,15.2,30.16,NNW,338,2.2,2.2,46,0.00,,---,0.00,VWS V14.01,2013-01-22 08:41:00,
2013-01-22 01:46:00,34.0,15.4,30.16,NNW,338,2.5,2.5,46,0.00,,---,0.00,VWS V14.01,2013-01-22 08:46:00,
2013-01-22 01:51:00,34.0,15.4,30.16,North,0,4.7,4.7,46,0.00,,---,0.00,VWS V14.01,2013-01-22 08:51:00,
2013-01-22 01:56:00,34.0,15.4,30.16,NNE,22,4.0,4.0,46,0.00,,---,0.00,VWS V14.01,2013-01-22 08:56:00,
2013-01-22 02:01:00,33.8,15.2,30.16,NNW,338,3.4,3.4,46,0.00,,---,0.00,VWS V14.01,2013-01-22 09:01:00,
2013-01-22 02:06:00,33.7,15.6,30.17,NNE,22,6.0,6.0,47,0.00,,---,0.00,VWS V14.01,2013-01-22 09:06:00,
2013-01-22 02:11:00,33.7,15.6,30.16,NW,315,1.1,1.1,47,0.00,,---,0.00,VWS V14.01,2013-01-22 09:11:00,
2013-01-22 02:16:00,33.5,15.4,30.17,North,0,1.1,1.1,47,0.00,,---,0.00,VWS V14.01,2013-01-22 09:16:00,
2013-01-22 02:21:00,33.5,15.4,30.16,NNW,338,0.7,0.7,47,0.00,,---,0.01,VWS V14.01,2013-01-22 09:21:00,
2013-01-22 02:26:00,33.3,15.3,30.16,NNW,338,0.4,0.4,47,0.00,,---,0.00,VWS V14.01,2013-01-22 09:26:00,
2013-01-22 02:31:00,33.3,15.3,30.16,North,0,0.9,0.9,47,0.00,,---,0.00,VWS V14.01,2013-01-22 09:31:00,
2013-01-22 02:36:00,33.1,15.1,30.17,North,0,0.4,0.4,47,0.00,,---,0.00,VWS V14.01,2013-01-22 09:36:00,
2013-01-22 02:41:00,33.1,15.6,30.17,WNW,292,1.6,1.6,48,0.00,,---,0.00,VWS V14.01,2013-01-22 09:41:00,
2013-01-22 02:46:00,33.3,15.3,30.17,NW,315,2.0,2.0,47,0.00,,---,0.00,VWS V14.01,2013-01-22 09:46:00,
2013-01-22 02:51:00,32.8,15.3,30.17,NNW,338,0.2,0.2,48,0.00,,---,0.00,VWS V14.01,2013-01-22 09:51:00,
2013-01-22 02:56:00,32.6,15.1,30.17,North,0,1.1,1.1,48,0.00,,---,0.00,VWS V14.01,2013-01-22 09:56:00,
2013-01-22 03:01:00,32.4,14.9,30.17,NNE,22,1.1,1.1,48,0.00,,---,0.00,VWS V14.01,2013-01-22 10:01:00,
2013-01-22 03:06:00,32.4,14.9,30.17,North,0,0.2,0.2,48,0.00,,---,0.00,VWS V14.01,2013-01-22 10:06:00,
2013-01-22 03:11:00,32.4,14.9,30.17,NNW,338,2.2,2.2,48,0.00,,---,0.00,VWS V14.01,2013-01-22 10:11:00,
2013-01-22 03:16:00,32.2,14.7,30.17,North,0,0.2,0.2,48,0.00,,---,0.00,VWS V14.01,2013-01-22 10:16:00,
2013-01-22 03:21:00,32.2,14.7,30.17,North,0,0.9,0.9,48,0.00,,---,0.00,VWS V14.01,2013-01-22 10:21:00,
2013-01-22 03:26:00,32.6,15.1,30.17,NNW,338,2.7,2.7,48,0.00,,---,0.00,VWS V14.01,2013-01-22 10:26:00,
2013-01-22 03:31:00,32.8,15.3,30.17,NNW,338,3.6,3.6,48,0.00,,---,0.00,VWS V14.01,2013-01-22 10:31:00,
2013-01-22 03:36:00,32.9,14.9,30.17,WNW,292,0.7,0.7,47,0.00,,---,0.00,VWS V14.01,2013-01-22 10:36:00,
2013-01-22 03:41:00,32.8,14.8,30.17,North,0,1.8,1.8,47,0.00,,---,0.00,VWS V14.01,2013-01-22 10:41:00,
2013-01-22 03:46:00,32.6,15.1,30.17,North,0,1.3,1.3,48,0.00,,---,0.00,VWS V14.01,2013-01-22 10:46:00,
2013-01-22 03:51:00,32.6,15.1,30.17,North,0,1.3,1.3,48,0.00,,---,0.00,VWS V14.01,2013-01-22 10:51:00,
2013-01-22 03:56:00,32.4,14.9,30.17,NNW,338,2.7,2.7,48,0.00,,---,0.00,VWS V14.01,2013-01-22 10:56:00,
2013-01-22 04:01:00,32.4,14.9,30.17,North,0,1.8,1.8,48,0.00,,---,0.00,VWS V14.01,2013-01-22 11:01:00,
2013-01-22 04:06:00,32.8,15.3,30.17,North,0,1.3,1.3,48,0.00,,---,0.00,VWS V14.01,2013-01-22 11:06:00,
2013-01-22 04:11:00,32.9,14.9,30.17,North,0,2.9,2.9,47,0.00,,---,0.00,VWS V14.01,2013-01-22 11:11:00,
2013-01-22 04:16:00,33.5,15.4,30.17,NE,45,3.6,3.6,47,0.00,,---,0.00,VWS V14.01,2013-01-22 11:16:00,
2013-01-22 04:21:00,33.5,14.9,30.18,NNW,338,4.7,4.7,46,0.00,,---,0.00,VWS V14.01,2013-01-22 11:21:00,
2013-01-22 04:27:00,33.8,15.2,30.17,North,0,3.4,3.4,46,0.00,,---,0.00,VWS V14.01,2013-01-22 11:27:00,
2013-01-22 04:32:00,33.7,15.6,30.17,NNW,338,1.6,1.6,47,0.00,,---,0.00,VWS V14.01,2013-01-22 11:32:00,
2013-01-22 04:37:00,33.5,15.4,30.17,NNE,22,2.7,2.7,47,0.00,,---,0.00,VWS V14.01,2013-01-22 11:37:00,
2013-01-22 04:42:00,33.3,15.7,30.17,NNW,338,1.6,1.6,48,0.00,,---,0.00,VWS V14.01,2013-01-22 11:42:00,
2013-01-22 04:47:00,32.9,15.4,30.17,NNW,338,1.1,1.1,48,0.00,,---,0.00,VWS V14.01,2013-01-22 11:47:00,
2013-01-22 04:52:00,32.6,15.6,30.17,NNW,338,0.4,0.4,49,0.00,,---,0.00,VWS V14.01,2013-01-22 11:52:00,
2013-01-22 04:57:00,32.0,15.5,30.17,NNE,22,0.9,0.9,50,0.00,,---,0.00,VWS V14.01,2013-01-22 11:57:00,
2013-01-22 05:02:00,31.5,15.0,30.17,NW,315,0.4,0.4,50,0.00,,---,0.00,VWS V14.01,2013-01-22 12:02:00,
2013-01-22 05:07:00,31.0,15.0,30.17,NNW,338,0.4,0.4,51,0.00,,---,0.00,VWS V14.01,2013-01-22 12:07:00,
2013-01-22 05:12:00,30.6,15.1,30.17,North,0,0.2,0.2,52,0.00,,---,0.00,VWS V14.01,2013-01-22 12:12:00,
2013-01-22 05:17:00,30.2,14.7,30.17,North,0,0.0,0.0,52,0.00,,---,0.00,VWS V14.01,2013-01-22 12:17:00,
2013-01-22 05:22:00,29.9,14.4,30.17,NW,315,0.2,0.2,52,0.00,,---,0.00,VWS V14.01,2013-01-22 12:22:00,
2013-01-22 05:27:00,29.5,14.1,30.18,NW,315,0.0,0.0,52,0.00,,---,0.00,VWS V14.01,2013-01-22 12:27:00,
2013-01-22 05:32:00,28.8,13.4,30.17,NW,315,0.0,0.0,52,0.00,,---,0.00,VWS V14.01,2013-01-22 12:32:00,
2013-01-22 05:37:00,28.4,13.5,30.17,NE,45,0.4,0.4,53,0.00,,---,0.01,VWS V14.01,2013-01-22 12:37:00,
2013-01-22 05:42:00,28.4,13.9,30.18,NE,45,0.0,0.0,54,0.00,,---,0.00,VWS V14.01,2013-01-22 12:42:00,
2013-01-22 05:47:00,28.1,15.2,30.18,ENE,68,1.3,1.3,58,0.00,,---,0.01,VWS V14.01,2013-01-22 12:47:00,
2013-01-22 05:52:00,28.1,14.4,30.18,ENE,68,0.0,0.0,56,0.00,,---,0.00,VWS V14.01,2013-01-22 12:52:00,
2013-01-22 05:57:00,27.7,13.2,30.18,ENE,68,0.0,0.0,54,0.00,,---,0.00,VWS V14.01,2013-01-22 12:57:00,
2013-01-22 06:02:00,27.7,14.1,30.18,WSW,248,0.0,0.0,56,0.00,,---,0.00,VWS V14.01,2013-01-22 13:02:00,
2013-01-22 06:07:00,27.7,13.6,30.18,WSW,248,0.0,0.0,55,0.00,,---,0.00,VWS V14.01,2013-01-22 13:07:00,
2013-01-22 06:12:00,27.4,13.4,30.18,WSW,248,0.0,0.0,55,0.00,,---,0.00,VWS V14.01,2013-01-22 13:12:00,
2013-01-22 06:17:00,26.6,13.0,30.18,WSW,248,0.0,0.0,56,0.00,,---,0.00,VWS V14.01,2013-01-22 13:17:00,
2013-01-22 06:22:00,26.3,13.1,30.19,WSW,248,0.0,0.0,57,0.00,,---,0.00,VWS V14.01,2013-01-22 13:22:00,
2013-01-22 06:27:00,25.9,12.8,30.19,WSW,248,0.0,0.0,57,0.00,,---,0.00,VWS V14.01,2013-01-22 13:27:00,
2013-01-22 06:32:00,26.1,13.8,30.19,WSW,248,0.0,0.0,59,0.00,,---,0.00,VWS V14.01,2013-01-22 13:32:00,
2013-01-22 06:37:00,25.9,12.8,30.19,WSW,248,0.0,0.0,57,0.00,,---,0.00,VWS V14.01,2013-01-22 13:37:00,
2013-01-22 06:42:00,25.6,13.3,30.19,WSW,248,0.0,0.0,59,0.00,,---,0.00,VWS V14.01,2013-01-22 13:42:00,
2013-01-22 06:47:00,25.6,13.7,30.19,South,180,0.0,0.0,60,0.00,,---,0.00,VWS V14.01,2013-01-22 13:47:00,
2013-01-22 06:52:00,26.1,14.9,30.19,SE,135,0.0,0.0,62,0.00,,---,0.00,VWS V14.01,2013-01-22 13:52:00,
2013-01-22 06:57:00,26.3,14.7,30.19,SE,135,0.0,0.0,61,0.00,,---,0.00,VWS V14.01,2013-01-22 13:57:00,
2013-01-22 07:02:00,25.7,13.4,30.19,SE,135,0.0,0.0,59,0.00,,---,0.01,VWS V14.01,2013-01-22 14:02:00,
2013-01-22 07:07:00,25.4,14.6,30.19,SE,135,0.0,0.0,63,0.00,,---,0.00,VWS V14.01,2013-01-22 14:07:00,
2013-01-22 07:12:00,25.6,14.4,30.19,ENE,68,0.9,0.9,62,0.00,,---,0.00,VWS V14.01,2013-01-22 14:12:00,
2013-01-22 07:17:00,25.6,13.7,30.19,NE,45,1.1,1.1,60,0.00,,---,0.00,VWS V14.01,2013-01-22 14:17:00,
2013-01-22 07:22:00,25.2,13.3,30.20,ENE,68,0.7,0.7,60,0.00,,---,0.00,VWS V14.01,2013-01-22 14:22:00,
2013-01-22 07:27:00,25.2,13.6,30.20,ENE,68,0.0,0.0,61,0.00,,---,0.00,VWS V14.01,2013-01-22 14:27:00,
2013-01-22 07:32:00,25.2,12.9,30.20,ENE,68,0.2,0.2,59,0.00,,---,0.00,VWS V14.01,2013-01-22 14:32:00,
2013-01-22 07:37:00,25.4,13.5,30.20,ENE,68,0.2,0.2,60,0.00,,---,0.00,VWS V14.01,2013-01-22 14:37:00,
2013-01-22 07:42:00,27.7,14.9,30.20,ENE,68,0.4,0.4,58,0.00,,---,0.00,VWS V14.01,2013-01-22 14:42:00,
2013-01-22 07:47:00,30.2,14.7,30.20,ENE,68,0.4,0.4,52,0.00,,---,0.00,VWS V14.01,2013-01-22 14:47:00,
2013-01-22 07:52:00,31.5,14.6,30.20,ENE,68,0.4,0.4,49,0.00,,---,0.00,VWS V14.01,2013-01-22 14:52:00,
2013-01-22 07:57:00,33.5,16.4,30.20,ENE,68,0.0,0.0,49,0.00,,---,0.00,VWS V14.01,2013-01-22 14:57:00,
2013-01-22 08:02:00,36.2,18.4,30.20,ENE,68,0.2,0.2,48,0.00,,---,0.00,VWS V14.01,2013-01-22 15:02:00,
2013-01-22 08:07:00,38.5,19.0,30.20,ENE,68,0.0,0.0,45,0.00,,---,0.00,VWS V14.01,2013-01-22 15:07:00,
2013-01-22 08:12:00,39.8,19.1,30.20,ENE,68,0.0,0.0,43,0.00,,---,0.00,VWS V14.01,2013-01-22 15:12:00,
2013-01-22 08:17:00,38.2,17.7,30.20,West,270,0.4,0.4,43,0.00,,---,0.00,VWS V14.01,2013-01-22 15:17:00,
2013-01-22 08:22:00,37.8,17.3,30.20,West,270,0.0,0.0,43,0.00,,---,0.00,VWS V14.01,2013-01-22 15:22:00,
2013-01-22 08:27:00,40.0,18.8,30.20,WNW,292,0.0,0.0,42,0.00,,---,0.00,VWS V14.01,2013-01-22 15:27:00,
2013-01-22 08:32:00,42.8,17.7,30.21,NW,315,0.7,0.7,36,0.00,,---,0.00,VWS V14.01,2013-01-22 15:32:00,
2013-01-22 08:37:00,42.3,17.9,30.20,NW,315,0.0,0.0,37,0.00,,---,0.00,VWS V14.01,2013-01-22 15:37:00,
2013-01-22 08:42:00,40.3,15.5,30.20,West,270,0.0,0.0,36,0.00,,---,0.00,VWS V14.01,2013-01-22 15:42:00,
2013-01-22 08:47:00,39.2,14.5,30.20,WSW,248,1.1,1.1,36,0.00,,---,0.00,VWS V14.01,2013-01-22 15:47:00,
2013-01-22 08:52:00,38.5,14.5,30.20,WSW,248,1.1,1.1,37,0.00,,---,0.00,VWS V14.01,2013-01-22 15:52:00,
2013-01-22 08:57:00,38.3,14.9,30.21,NNW,338,0.7,0.7,38,0.00,,---,0.00,VWS V14.01,2013-01-22 15:57:00,
2013-01-22 09:02:00,39.2,15.1,30.20,WNW,292,2.5,2.5,37,0.00,,---,0.00,VWS V14.01,2013-01-22 16:02:00,
2013-01-22 09:07:00,40.1,15.3,30.20,WNW,292,2.5,2.5,36,0.00,,---,0.00,VWS V14.01,2013-01-22 16:07:00,
2013-01-22 09:12:00,40.9,15.4,30.20,WNW,292,5.1,5.1,35,0.00,,---,0.00,VWS V14.01,2013-01-22 16:12:00,
2013-01-22 09:17:00,40.7,15.2,30.21,NW,315,2.0,2.0,35,0.00,,---,0.00,VWS V14.01,2013-01-22 16:17:00,
2013-01-22 09:22:00,42.1,16.4,30.21,WNW,292,1.8,1.8,35,0.00,,---,0.00,VWS V14.01,2013-01-22 16:22:00,
2013-01-22 09:27:00,42.8,15.7,30.21,West,270,1.6,1.6,33,0.00,,---,0.00,VWS V14.01,2013-01-22 16:27:00,
2013-01-22 09:32:00,43.6,16.4,30.21,North,0,2.9,2.9,33,0.00,,---,0.00,VWS V14.01,2013-01-22 16:32:00,
2013-01-22 09:37:00,43.9,16.0,30.21,WNW,292,2.0,2.0,32,0.00,,---,0.00,VWS V14.01,2013-01-22 16:37:00,
2013-01-22 09:42:00,44.8,16.8,30.21,North,0,4.0,4.0,32,0.00,,---,0.00,VWS V14.01,2013-01-22 16:42:00,
2013-01-22 09:47:00,45.9,16.2,30.21,North,0,5.1,5.1,30,0.00,,---,0.00,VWS V14.01,2013-01-22 16:47:00,
2013-01-22 09:52:00,45.2,15.6,30.21,NNW,338,6.3,6.3,30,0.00,,---,0.00,VWS V14.01,2013-01-22 16:52:00,
2013-01-22 09:57:00,45.2,15.6,30.21,NW,315,2.0,2.0,30,0.00,,---,0.00,VWS V14.01,2013-01-22 16:57:00,
2013-01-22 10:02:00,44.8,16.0,30.21,NW,315,2.7,2.7,31,0.00,,---,0.00,VWS V14.01,2013-01-22 17:02:00,
2013-01-22 10:07:00,44.5,15.0,30.21,West,270,5.4,5.4,30,0.00,,---,0.00,VWS V14.01,2013-01-22 17:07:00,
2013-01-22 10:12:00,44.6,15.9,30.21,NNW,338,2.5,2.5,31,0.00,,---,0.00,VWS V14.01,2013-01-22 17:12:00,
2013-01-22 10:17:00,44.5,15.8,30.21,NW,315,2.2,2.2,31,0.00,,---,0.00,VWS V14.01,2013-01-22 17:17:00,
2013-01-22 10:22:00,44.8,16.0,30.21,WNW,292,2.2,2.2,31,0.00,,---,0.00,VWS V14.01,2013-01-22 17:22:00,
2013-01-22 10:27:00,44.6,15.9,30.21,West,270,5.4,5.4,31,0.00,,---,0.00,VWS V14.01,2013-01-22 17:27:00,
2013-01-22 10:32:00,44.3,16.3,30.21,West,270,5.4,5.4,32,0.00,,---,0.00,VWS V14.01,2013-01-22 17:32:00,
2013-01-22 10:38:00,43.6,16.4,30.21,WSW,248,4.7,4.7,33,0.00,,---,0.00,VWS V14.01,2013-01-22 17:38:00,
2013-01-22 10:43:00,43.0,15.2,30.21,WSW,248,4.0,4.0,32,0.00,,---,0.00,VWS V14.01,2013-01-22 17:43:00,
2013-01-22 10:48:00,42.8,15.7,30.21,WNW,292,4.3,4.3,33,0.00,,---,0.00,VWS V14.01,2013-01-22 17:48:00,
2013-01-22 10:53:00,43.2,15.4,30.21,WNW,292,2.9,2.9,32,0.00,,---,0.00,VWS V14.01,2013-01-22 17:53:00,
2013-01-22 10:58:00,43.9,16.7,30.21,West,270,4.9,4.9,33,0.00,,---,0.00,VWS V14.01,2013-01-22 17:58:00,
2013-01-22 11:03:00,44.1,16.9,30.21,WSW,248,2.5,4.7,33,0.00,,---,0.00,VWS V14.01,2013-01-22 18:03:00,
2013-01-22 11:08:00,44.3,17.0,30.21,WNW,292,2.5,2.5,33,0.00,,---,0.00,VWS V14.01,2013-01-22 18:08:00,
2013-01-22 11:13:00,44.6,16.6,30.21,NNW,338,4.0,4.0,32,0.00,,---,0.01,VWS V14.01,2013-01-22 18:13:00,
2013-01-22 11:18:00,44.3,16.3,30.20,WNW,292,2.5,2.5,32,0.00,,---,0.00,VWS V14.01,2013-01-22 18:18:00,
2013-01-22 11:23:00,44.3,17.0,30.20,West,270,0.9,0.9,33,0.00,,---,0.00,VWS V14.01,2013-01-22 18:23:00,
2013-01-22 11:28:00,45.2,17.1,30.20,NNW,338,2.0,2.0,32,0.00,,---,0.00,VWS V14.01,2013-01-22 18:28:00,
2013-01-22 11:33:00,45.7,16.8,30.19,NW,315,4.0,4.0,31,0.00,,---,0.00,VWS V14.01,2013-01-22 18:33:00,
2013-01-22 11:38:00,46.1,16.4,30.19,NNE,22,6.3,6.3,30,0.00,,---,0.00,VWS V14.01,2013-01-22 18:38:00,
2013-01-22 11:43:00,46.6,16.1,30.19,NNW,338,2.9,2.9,29,0.00,,---,0.00,VWS V14.01,2013-01-22 18:43:00,
2013-01-22 11:48:00,46.6,16.1,30.19,NW,315,4.0,4.0,29,0.00,,---,0.00,VWS V14.01,2013-01-22 18:48:00,
2013-01-22 11:53:00,47.3,16.7,30.18,WNW,292,5.4,5.4,29,0.00,,---,0.00,VWS V14.01,2013-01-22 18:53:00,
2013-01-22 11:58:00,47.9,17.2,30.19,WNW,292,3.4,3.4,29,0.00,,---,0.00,VWS V14.01,2013-01-22 18:58:00,
2013-01-22 12:03:00,47.9,16.4,30.18,West,270,4.7,4.7,28,0.00,,---,0.00,VWS V14.01,2013-01-22 19:03:00,
2013-01-22 12:08:00,47.9,16.4,30.18,WSW,248,4.9,4.9,28,0.00,,---,0.00,VWS V14.01,2013-01-22 19:08:00,
2013-01-22 12:13:00,48.1,16.5,30.17,SW,225,1.1,1.1,28,0.00,,---,0.00,VWS V14.01,2013-01-22 19:13:00,
2013-01-22 12:18:00,48.1,16.5,30.17,WSW,248,3.8,3.8,28,0.00,,---,0.00,VWS V14.01,2013-01-22 19:18:00,
2013-01-22 12:23:00,47.7,16.2,30.17,WSW,248,3.4,3.4,28,0.00,,---,0.00,VWS V14.01,2013-01-22 19:23:00,
2013-01-22 12:28:00,47.9,16.4,30.16,West,270,0.2,0.2,28,0.00,,---,0.00,VWS V14.01,2013-01-22 19:28:00,
2013-01-22 12:33:00,48.2,16.6,30.16,West,270,3.4,3.4,28,0.00,,---,0.00,VWS V14.01,2013-01-22 19:33:00,
2013-01-22 12:38:00,48.2,15.8,30.16,SW,225,0.7,0.7,27,0.00,,---,0.00,VWS V14.01,2013-01-22 19:38:00,
2013-01-22 12:43:00,49.0,16.5,30.16,West,270,6.0,6.0,27,0.00,,---,0.00,VWS V14.01,2013-01-22 19:43:00,
2013-01-22 12:48:00,50.0,17.4,30.16,NNW,338,4.0,4.0,27,0.00,,---,0.00,VWS V14.01,2013-01-22 19:48:00,
2013-01-22 12:53:00,50.4,15.9,30.16,WNW,292,2.7,2.7,25,0.00,,---,0.00,VWS V14.01,2013-01-22 19:53:00,
2013-01-22 12:58:00,50.8,16.3,30.16,SW,225,0.4,0.4,25,0.00,,---,0.00,VWS V14.01,2013-01-22 19:58:00,
2013-01-22 13:03:00,51.8,16.2,30.15,NW,315,1.8,1.8,24,0.00,,---,0.00,VWS V14.01,2013-01-22 20:03:00,
2013-01-22 13:08:00,51.8,15.2,30.15,WSW,248,3.1,3.1,23,0.00,,---,0.00,VWS V14.01,2013-01-22 20:08:00,
2013-01-22 13:13:00,50.9,15.4,30.15,NW,315,1.3,2.5,24,0.00,,---,0.00,VWS V14.01,2013-01-22 20:13:00,
2013-01-22 13:18:00,51.3,15.8,30.15,NW,315,4.0,4.0,24,0.00,,---,0.00,VWS V14.01,2013-01-22 20:18:00,
2013-01-22 13:23:00,51.3,15.8,30.15,West,270,2.7,2.7,24,0.00,,---,0.00,VWS V14.01,2013-01-22 20:23:00,
2013-01-22 13:28:00,51.8,15.2,30.14,SSW,202,1.8,1.8,23,0.00,,---,0.00,VWS V14.01,2013-01-22 20:28:00,
2013-01-22 13:33:00,52.2,14.5,30.14,SW,225,2.2,2.2,22,0.00,,---,0.00,VWS V14.01,2013-01-22 20:33:00,
2013-01-22 13:38:00,53.3,14.4,30.14,SW,225,4.3,4.3,21,0.00,,---,0.00,VWS V14.01,2013-01-22 20:38:00,
2013-01-22 13:43:00,54.0,15.0,30.14,NW,315,2.7,2.7,21,0.00,,---,0.00,VWS V14.01,2013-01-22 20:43:00,
2013-01-22 13:48:00,54.9,15.7,30.14,West,270,1.8,1.8,21,0.00,,---,0.00,VWS V14.01,2013-01-22 20:48:00,
2013-01-22 13:53:00,54.5,14.3,30.14,West,270,4.0,4.0,20,0.00,,---,0.00,VWS V14.01,2013-01-22 20:53:00,
2013-01-22 13:58:00,53.3,14.4,30.14,WNW,292,6.0,6.0,21,0.00,,---,0.00,VWS V14.01,2013-01-22 20:58:00,
2013-01-22 14:03:00,53.5,13.4,30.14,SW,225,3.6,3.6,20,0.00,,---,0.00,VWS V14.01,2013-01-22 21:03:00,
2013-01-22 14:08:00,53.8,13.7,30.14,WSW,248,2.0,2.0,20,0.00,,---,0.00,VWS V14.01,2013-01-22 21:08:00,
2013-01-22 14:13:00,53.8,14.8,30.14,West,270,2.5,2.5,21,0.00,,---,0.00,VWS V14.01,2013-01-22 21:13:00,
2013-01-22 14:18:00,53.8,13.7,30.14,WNW,292,0.4,0.4,20,0.00,,---,0.00,VWS V14.01,2013-01-22 21:18:00,
2013-01-22 14:23:00,55.4,15.0,30.14,West,270,1.6,1.6,20,0.00,,---,0.00,VWS V14.01,2013-01-22 21:23:00,
2013-01-22 14:28:00,56.0,15.5,30.14,NNW,338,2.0,2.0,20,0.00,,---,0.00,VWS V14.01,2013-01-22 21:28:00,
2013-01-22 14:31:00,55.8,12.9,30.14,West,270,1.6,1.6,18,0.00,,---,0.00,VWS V14.01,2013-01-22 21:31:00,
2013-01-22 14:36:00,55.3,12.5,30.14,NNW,338,4.0,4.0,18,0.00,,---,0.00,VWS V14.01,2013-01-22 21:36:00,
2013-01-22 14:41:00,56.5,12.2,30.14,West,270,3.4,3.4,17,0.00,,---,0.00,VWS V14.01,2013-01-22 21:41:00,
2013-01-22 14:46:00,56.7,12.4,30.13,NNW,338,0.4,0.4,17,0.00,,---,0.00,VWS V14.01,2013-01-22 21:46:00,
2013-01-22 14:51:00,56.3,12.1,30.13,WNW,292,2.2,2.2,17,0.00,,---,0.00,VWS V14.01,2013-01-22 21:51:00,
2013-01-22 14:56:00,56.5,12.2,30.13,NNE,22,1.8,1.8,17,0.00,,---,0.00,VWS V14.01,2013-01-22 21:56:00,
2013-01-22 15:01:00,56.9,12.6,30.13,WNW,292,3.6,3.6,17,0.00,,---,0.00,VWS V14.01,2013-01-22 22:01:00,
2013-01-22 15:07:00,57.8,11.9,30.13,North,0,5.4,5.4,16,0.00,,---,0.00,VWS V14.01,2013-01-22 22:07:00,
2013-01-22 15:12:00,58.1,12.2,30.13,North,0,4.5,4.5,16,0.00,,---,0.00,VWS V14.01,2013-01-22 22:12:00,
2013-01-22 15:17:00,56.9,11.2,30.13,North,0,5.4,5.4,16,0.00,,---,0.00,VWS V14.01,2013-01-22 22:17:00,
2013-01-22 15:22:00,56.7,11.0,30.13,West,270,1.8,1.8,16,0.00,,---,0.00,VWS V14.01,2013-01-22 22:22:00,
2013-01-22 15:27:00,58.0,10.6,30.13,North,0,5.1,5.1,15,0.00,,---,0.00,VWS V14.01,2013-01-22 22:27:00,
2013-01-22 15:32:00,58.3,10.9,30.13,NW,315,4.0,4.0,15,0.00,,---,0.00,VWS V14.01,2013-01-22 22:32:00,
2013-01-22 15:37:00,58.9,9.8,30.13,NW,315,5.4,5.4,14,0.00,,---,0.00,VWS V14.01,2013-01-22 22:37:00,
2013-01-22 15:42:00,59.2,11.6,30.13,NW,315,3.1,3.1,15,0.00,,---,0.00,VWS V14.01,2013-01-22 22:42:00,
2013-01-22 15:47:00,59.9,10.6,30.13,WNW,292,3.4,3.4,14,0.00,,---,0.00,VWS V14.01,2013-01-22 22:47:00,
2013-01-22 15:52:00,59.9,9.0,30.13,NW,315,2.0,2.0,13,0.00,,---,0.00,VWS V14.01,2013-01-22 22:52:00,
2013-01-22 15:57:00,60.7,9.6,30.13,WNW,292,2.5,2.5,13,0.00,,---,0.00,VWS V14.01,2013-01-22 22:57:00,
2013-01-22 16:02:00,60.8,7.9,30.13,NW,315,4.0,4.0,12,0.00,,---,0.00,VWS V14.01,2013-01-22 23:02:00,
2013-01-22 16:07:00,61.6,8.5,30.13,NNW,338,2.9,2.9,12,0.00,,---,0.00,VWS V14.01,2013-01-22 23:07:00,
2013-01-22 16:12:00,61.4,8.4,30.12,NW,315,3.6,3.6,12,0.00,,---,0.00,VWS V14.01,2013-01-22 23:12:00,
2013-01-22 16:17:00,61.7,8.6,30.12,NW,315,4.7,4.7,12,0.00,,---,0.00,VWS V14.01,2013-01-22 23:17:00,
2013-01-22 16:22:00,61.6,8.5,30.12,NNE,22,2.5,2.5,12,0.00,,---,0.00,VWS V14.01,2013-01-22 23:22:00,
2013-01-22 16:27:00,60.8,7.9,30.12,WNW,292,2.2,2.2,12,0.00,,---,0.00,VWS V14.01,2013-01-22 23:27:00,
2013-01-22 16:32:00,61.0,9.8,30.12,North,0,2.2,2.2,13,0.00,,---,0.00,VWS V14.01,2013-01-22 23:32:00,
2013-01-22 16:37:00,61.2,10.0,30.12,WNW,292,1.6,1.6,13,0.00,,---,0.00,VWS V14.01,2013-01-22 23:37:00,
2013-01-22 16:42:00,60.1,9.1,30.12,North,0,2.5,2.5,13,0.00,,---,0.00,VWS V14.01,2013-01-22 23:42:00,
2013-01-22 16:47:00,59.4,8.6,30.13,NW,315,1.6,1.6,13,0.00,,---,0.00,VWS V14.01,2013-01-22 23:47:00,
2013-01-22 16:52:00,58.9,6.4,30.13,North,0,4.5,4.5,12,0.00,,---,0.00,VWS V14.01,2013-01-22 23:52:00,
2013-01-22 16:57:00,58.0,5.7,30.13,NNW,338,1.8,1.8,12,0.00,,---,0.00,VWS V14.01,2013-01-22 23:57:00,
2013-01-22 17:02:00,57.2,5.1,30.13,North,0,3.1,3.1,12,0.00,,---,0.00,VWS V14.01,2013-01-23 00:02:00,
2013-01-22 17:07:00,56.5,4.5,30.13,North,0,5.8,5.8,12,0.00,,---,0.00,VWS V14.01,2013-01-23 00:07:00,
2013-01-22 17:12:00,55.8,5.7,30.13,North,0,4.3,4.3,13,0.00,,---,0.00,VWS V14.01,2013-01-23 00:12:00,
2013-01-22 17:17:00,54.9,5.0,30.13,North,0,1.8,1.8,13,0.00,,---,0.00,VWS V14.01,2013-01-23 00:17:00,
2013-01-22 17:22:00,54.4,2.9,30.13,NNE,22,4.0,4.0,12,0.00,,---,0.00,VWS V14.01,2013-01-23 00:22:00,
2013-01-22 17:27:00,54.0,4.3,30.13,NNE,22,4.7,4.7,13,0.00,,---,0.00,VWS V14.01,2013-01-23 00:27:00,
2013-01-22 17:32:00,53.6,5.6,30.13,WNW,292,6.9,6.9,14,0.00,,---,0.00,VWS V14.01,2013-01-23 00:32:00,
2013-01-22 17:37:00,53.5,5.5,30.13,NNW,338,2.5,2.5,14,0.00,,---,0.00,VWS V14.01,2013-01-23 00:37:00,
2013-01-22 17:42:00,53.3,5.3,30.13,North,0,6.3,6.3,14,0.00,,---,0.00,VWS V14.01,2013-01-23 00:42:00,
2013-01-22 17:47:00,52.9,5.0,30.13,North,0,3.4,3.4,14,0.00,,---,0.00,VWS V14.01,2013-01-23 00:47:00,
2013-01-22 17:52:00,52.6,4.8,30.13,NNW,338,8.1,8.1,14,0.00,,---,0.00,VWS V14.01,2013-01-23 00:52:00,
2013-01-22 17:57:00,52.2,6.0,30.13,North,0,5.6,5.6,15,0.00,,---,0.00,VWS V14.01,2013-01-23 00:57:00,
2013-01-22 18:02:00,51.8,5.6,30.14,NNE,22,2.0,2.0,15,0.00,,---,0.00,VWS V14.01,2013-01-23 01:02:00,
2013-01-22 18:07:00,51.7,5.6,30.14,NNE,22,2.5,2.5,15,0.00,,---,0.00,VWS V14.01,2013-01-23 01:07:00,
2013-01-22 18:12:00,51.5,6.8,30.14,NNE,22,3.8,3.8,16,0.00,,---,0.00,VWS V14.01,2013-01-23 01:12:00,
2013-01-22 18:17:00,51.1,6.5,30.14,NNE,22,4.3,4.3,16,0.00,,---,0.00,VWS V14.01,2013-01-23 01:17:00,
2013-01-22 18:22:00,50.8,7.6,30.15,NNW,338,4.7,4.7,17,0.00,,---,0.00,VWS V14.01,2013-01-23 01:22:00,
2013-01-22 18:27:00,50.6,7.4,30.15,North,0,4.5,4.5,17,0.00,,---,0.00,VWS V14.01,2013-01-23 01:27:00,
2013-01-22 18:32:00,50.2,7.1,30.15,NNW,338,5.6,5.6,17,0.00,,---,0.00,VWS V14.01,2013-01-23 01:32:00,
2013-01-22 18:37:00,50.0,8.2,30.15,North,0,4.5,4.5,18,0.00,,---,0.00,VWS V14.01,2013-01-23 01:37:00,
2013-01-22 18:42:00,49.5,7.8,30.16,NNW,338,3.8,3.8,18,0.00,,---,0.00,VWS V14.01,2013-01-23 01:42:00,
2013-01-22 18:47:00,49.0,7.4,30.16,North,0,1.1,1.1,18,0.00,,---,0.00,VWS V14.01,2013-01-23 01:47:00,
2013-01-22 18:52:00,48.4,9.2,30.15,NNE,22,1.6,1.6,20,0.00,,---,0.00,VWS V14.01,2013-01-23 01:52:00,
2013-01-22 18:57:00,47.9,8.8,30.15,North,0,2.9,2.9,20,0.00,,---,0.00,VWS V14.01,2013-01-23 01:57:00,
2013-01-22 19:02:00,47.5,9.5,30.15,NNE,22,2.5,2.5,21,0.00,,---,0.00,VWS V14.01,2013-01-23 02:02:00,
2013-01-22 19:07:00,47.2,9.3,30.15,NNW,338,1.1,1.1,21,0.00,,---,0.00,VWS V14.01,2013-01-23 02:07:00,
2013-01-22 19:12:00,46.8,8.9,30.16,NNE,22,1.3,1.3,21,0.00,,---,0.00,VWS V14.01,2013-01-23 02:12:00,
2013-01-22 19:17:00,46.4,8.6,30.16,NW,315,1.1,1.1,21,0.00,,---,0.00,VWS V14.01,2013-01-23 02:17:00,
2013-01-22 19:22:00,46.1,9.4,30.16,NW,315,1.8,1.8,22,0.00,,---,0.00,VWS V14.01,2013-01-23 02:22:00,
2013-01-22 19:27:00,45.7,9.1,30.16,NW,315,1.8,1.8,22,0.00,,---,0.00,VWS V14.01,2013-01-23 02:27:00,
2013-01-22 19:32:00,45.0,8.5,30.16,NW,315,0.7,0.7,22,0.00,,---,0.00,VWS V14.01,2013-01-23 02:32:00,
2013-01-22 19:37:00,44.8,8.3,30.15,WNW,292,0.9,0.9,22,0.00,,---,0.00,VWS V14.01,2013-01-23 02:37:00,
2013-01-22 19:42:00,44.1,8.7,30.16,WNW,292,0.4,0.4,23,0.00,,---,0.00,VWS V14.01,2013-01-23 02:42:00,
2013-01-22 19:47:00,43.6,9.2,30.16,NNE,22,1.1,1.1,24,0.00,,---,0.00,VWS V14.01,2013-01-23 02:47:00,
2013-01-22 19:52:00,43.2,8.9,30.16,NNE,22,0.4,0.4,24,0.00,,---,0.01,VWS V14.01,2013-01-23 02:52:00,
2013-01-22 19:58:00,42.7,8.4,30.16,North,0,0.0,0.0,24,0.00,,---,0.00,VWS V14.01,2013-01-23 02:58:00,
2013-01-22 20:03:00,42.1,8.8,30.16,NNW,338,0.4,0.4,25,0.00,,---,0.00,VWS V14.01,2013-01-23 03:03:00,
2013-01-22 20:08:00,41.8,9.4,30.16,North,0,0.2,0.2,26,0.00,,---,0.00,VWS V14.01,2013-01-23 03:08:00,
2013-01-22 20:13:00,41.2,8.1,30.16,North,0,0.0,0.0,25,0.00,,---,0.00,VWS V14.01,2013-01-23 03:13:00,
2013-01-22 20:17:00,40.1,7.1,30.16,North,0,0.0,0.0,25,0.00,,---,0.00,VWS V14.01,2013-01-23 03:17:00,
2013-01-22 20:23:00,39.6,8.4,30.16,North,0,0.0,0.0,27,0.00,,---,0.00,VWS V14.01,2013-01-23 03:23:00,
2013-01-22 20:28:00,39.2,8.9,30.16,NE,45,1.1,1.1,28,0.00,,---,0.00,VWS V14.01,2013-01-23 03:28:00,
2013-01-22 20:33:00,39.6,9.2,30.17,East,90,2.0,2.0,28,0.00,,---,0.00,VWS V14.01,2013-01-23 03:33:00,
2013-01-22 20:38:00,40.0,9.5,30.17,NE,45,0.7,0.7,28,0.00,,---,0.00,VWS V14.01,2013-01-23 03:38:00,
2013-01-22 20:43:00,39.6,9.2,30.17,ENE,68,0.4,0.4,28,0.00,,---,0.00,VWS V14.01,2013-01-23 03:43:00,
2013-01-22 20:48:00,38.9,8.6,30.17,ENE,68,0.4,0.4,28,0.00,,---,0.00,VWS V14.01,2013-01-23 03:48:00,
2013-01-22 20:53:00,38.7,8.4,30.17,ENE,68,1.3,1.3,28,0.00,,---,0.00,VWS V14.01,2013-01-23 03:53:00,
2013-01-22 20:58:00,38.9,8.6,30.17,ENE,68,0.9,0.9,28,0.00,,---,0.00,VWS V14.01,2013-01-23 03:58:00,
2013-01-22 21:02:00,38.9,8.6,30.17,ENE,68,0.2,0.2,28,0.00,,---,0.00,VWS V14.01,2013-01-23 04:02:00,
2013-01-22 21:08:00,38.3,7.3,30.17,East,90,0.0,0.0,27,0.00,,---,0.00,VWS V14.01,2013-01-23 04:08:00,
2013-01-22 21:13:00,37.6,6.7,30.17,East,90,0.0,0.0,27,0.00,,---,0.00,VWS V14.01,2013-01-23 04:13:00,
2013-01-22 21:18:00,37.3,7.2,30.18,East,90,0.0,0.0,28,0.00,,---,0.00,VWS V14.01,2013-01-23 04:18:00,
2013-01-22 21:23:00,36.9,6.8,30.18,East,90,0.0,0.0,28,0.00,,---,0.00,VWS V14.01,2013-01-23 04:23:00,
2013-01-22 21:28:00,36.5,8.0,30.18,ENE,68,1.1,1.1,30,0.00,,---,0.00,VWS V14.01,2013-01-23 04:28:00,
2013-01-22 21:33:00,36.4,7.9,30.18,ENE,68,2.5,2.5,30,0.00,,---,0.00,VWS V14.01,2013-01-23 04:33:00,
2013-01-22 21:38:00,36.5,8.8,30.18,East,90,3.1,3.1,31,0.00,,---,0.00,VWS V14.01,2013-01-23 04:38:00,
2013-01-22 21:43:00,36.5,7.3,30.18,East,90,0.0,0.0,29,0.00,,---,0.00,VWS V14.01,2013-01-23 04:43:00,
2013-01-22 21:48:00,35.6,6.5,30.18,East,90,0.0,0.0,29,0.00,,---,0.00,VWS V14.01,2013-01-23 04:48:00,
2013-01-22 21:53:00,34.9,6.6,30.18,North,0,1.1,1.1,30,0.00,,---,0.00,VWS V14.01,2013-01-23 04:53:00,
2013-01-22 21:58:00,34.9,6.6,30.18,NE,45,1.1,1.1,30,0.00,,---,0.00,VWS V14.01,2013-01-23 04:58:00,
2013-01-22 22:01:00,35.3,7.7,30.19,NE,45,0.7,0.9,31,0.00,,---,0.00,VWS V14.01,2013-01-23 05:01:00,
2013-01-22 22:03:00,35.5,7.2,30.19,NE,45,1.1,1.1,30,0.00,,---,0.00,VWS V14.01,2013-01-23 05:03:00,
2013-01-22 22:08:00,35.3,7.7,30.19,ENE,68,0.9,0.9,31,0.00,,---,0.00,VWS V14.01,2013-01-23 05:08:00,
2013-01-22 22:13:00,35.5,7.9,30.19,NNE,22,0.4,0.4,31,0.00,,---,0.00,VWS V14.01,2013-01-23 05:13:00,
2013-01-22 22:18:00,35.6,8.0,30.19,NE,45,1.3,1.3,31,0.00,,---,0.00,VWS V14.01,2013-01-23 05:18:00,
2013-01-22 22:23:00,36.2,8.5,30.19,East,90,0.4,1.1,31,0.00,,---,0.00,VWS V14.01,2013-01-23 05:23:00,
2013-01-22 22:28:00,36.0,8.3,30.20,East,90,0.0,0.0,31,0.00,,---,0.00,VWS V14.01,2013-01-23 05:28:00,
2013-01-22 22:33:00,35.5,7.9,30.20,SE,135,0.4,0.4,31,0.00,,---,0.00,VWS V14.01,2013-01-23 05:33:00,
2013-01-22 22:38:00,34.7,6.4,30.20,SE,135,0.0,0.0,30,0.00,,---,0.00,VWS V14.01,2013-01-23 05:38:00,
2013-01-22 22:43:00,33.8,6.4,30.20,SE,135,0.0,0.0,31,0.00,,---,0.00,VWS V14.01,2013-01-23 05:43:00,
2013-01-22 22:48:00,33.5,6.1,30.20,SE,135,0.0,0.0,31,0.00,,---,0.00,VWS V14.01,2013-01-23 05:48:00,
2013-01-22 22:53:00,33.7,7.7,30.20,ESE,112,0.0,0.0,33,0.00,,---,0.01,VWS V14.01,2013-01-23 05:53:00,
2013-01-22 22:58:00,33.7,7.0,30.20,ESE,112,0.0,0.0,32,0.00,,---,0.00,VWS V14.01,2013-01-23 05:58:00,
2013-01-22 23:03:00,33.7,8.3,30.20,NNE,22,1.6,1.6,34,0.00,,---,0.00,VWS V14.01,2013-01-23 06:03:00,
2013-01-22 23:08:00,34.7,9.9,30.20,NNE,22,1.1,1.1,35,0.00,,---,0.00,VWS V14.01,2013-01-23 06:08:00,
2013-01-22 23:13:00,35.6,10.7,30.20,North,0,1.1,1.1,35,0.00,,---,0.00,VWS V14.01,2013-01-23 06:13:00,
2013-01-22 23:18:00,36.0,11.0,30.20,North,0,0.7,0.7,35,0.00,,---,0.00,VWS V14.01,2013-01-23 06:18:00,
2013-01-22 23:23:00,36.0,11.0,30.20,North,0,0.4,0.4,35,0.00,,---,0.00,VWS V14.01,2013-01-23 06:23:00,
2013-01-22 23:28:00,36.4,12.0,30.20,NNE,22,1.6,1.6,36,0.00,,---,0.00,VWS V14.01,2013-01-23 06:28:00,
2013-01-22 23:33:00,36.5,12.1,30.20,NNE,22,2.9,2.9,36,0.00,,---,0.00,VWS V14.01,2013-01-23 06:33:00,
2013-01-22 23:38:00,36.7,11.6,30.20,NNE,22,2.9,2.9,35,0.00,,---,0.00,VWS V14.01,2013-01-23 06:38:00,
2013-01-22 23:43:00,37.1,12.0,30.20,NNE,22,1.1,1.1,35,0.00,,---,0.00,VWS V14.01,2013-01-23 06:43:00,
2013-01-22 23:48:00,37.1,11.3,30.20,NE,45,0.9,0.9,34,0.00,,---,0.00,VWS V14.01,2013-01-23 06:48:00,
2013-01-22 23:53:00,37.3,11.5,30.21,ENE,68,1.1,1.1,34,0.00,,---,0.00,VWS V14.01,2013-01-23 06:53:00,
2013-01-22 23:58:00,37.1,10.7,30.20,ENE,68,0.0,0.0,33,0.00,,---,0.00,VWS V14.01,2013-01-23 06:58:00,